Waarnemingen

Advertentie
Mijn weer
Arvika, Zweden (2411): temperatuur & dauwpunt: 18.08.2019 00:00:00 - 24.08.2019 00:00:00 (CEST)Arvika, Zweden (2411): windsnelheid & windstoten: 18.08.2019 00:00:00 - 24.08.2019 00:00:00 (CEST)Arvika, Zweden (2411): windrichting: 18.08.2019 00:00:00 - 24.08.2019 00:00:00 (CEST)Arvika, Zweden (2411): luchtdruk: 18.08.2019 00:00:00 - 24.08.2019 00:00:00 (CEST)Arvika, Zweden (2411): zicht: 18.08.2019 00:00:00 - 24.08.2019 00:00:00 (CEST)Arvika, Zweden (2411): neerslag: 18.08.2019 00:00:00 - 24.08.2019 00:00:00 (CEST)
Datum & Tijd tt [°C] td [°C] ff [km/u] ff [kn] fx [km/u] fx [kn] dd ppp [hPa] vv [km] rr [mm]
24.08.2019 00:00:00 12,2 12,0 2 1 6 3 N 1020,8 - 0,0
23.08.2019 23:00:00 13,5 13,0 2 1 6 3 ZW 1020,1 - 0,0
23.08.2019 22:00:00 16,0 13,5 4 2 11 6 Z 1019,5 - 0,0
23.08.2019 21:00:00 16,8 13,5 3 2 16 8 ZZO 1019,1 - 0,0
23.08.2019 20:00:00 18,5 13,8 4 2 23 13 ZW 1018,1 - 0,0
23.08.2019 19:00:00 20,2 14,1 6 3 18 10 ZW 1017,4 38 0,0
23.08.2019 18:00:00 20,8 14,4 8 4 23 13 ZW 1017,0 42 0,0
23.08.2019 17:00:00 22,5 12,4 4 2 19 10 W 1016,8 50 0,0
23.08.2019 16:00:00 22,6 13,9 7 4 20 11 WZW 1016,2 38 0,0
23.08.2019 15:00:00 20,5 14,2 6 4 22 12 ZW 1016,1 50 0,0
23.08.2019 14:00:00 21,1 15,0 7 4 18 10 ZW 1015,9 39 0,0
23.08.2019 13:00:00 19,5 15,6 6 3 16 9 ZW 1015,8 42 0,0
23.08.2019 12:00:00 18,0 15,4 5 3 19 10 ZW 1015,6 37 0,0
23.08.2019 11:00:00 17,5 15,7 5 3 17 9 ZW 1015,6 40 0,0
23.08.2019 10:00:00 16,8 15,7 5 3 16 9 ZZW 1015,4 37 0,0
23.08.2019 09:00:00 15,3 14,7 6 3 13 7 Z 1015,6 31 0,1
23.08.2019 08:00:00 14,2 13,7 4 2 9 5 Z 1015,7 9 1,2
23.08.2019 07:00:00 13,6 13,0 3 2 23 12 ZZO 1016,0 6 2,5
23.08.2019 06:00:00 13,9 12,8 8 5 16 9 Z 1016,3 - 0,2
23.08.2019 05:00:00 13,8 12,5 10 5 17 9 Z 1016,9 - 0,0
23.08.2019 04:00:00 13,9 12,1 5 3 13 7 Z 1017,8 - 0,0
23.08.2019 03:00:00 14,0 12,2 7 4 16 9 Z 1017,9 - 0,0
23.08.2019 02:00:00 14,0 11,7 7 4 17 9 Z 1018,2 - 0,0
23.08.2019 01:00:00 14,1 11,8 5 3 16 9 Z 1018,0 - 0,0
23.08.2019 00:00:00 14,1 11,8 6 3 13 7 Z 1018,0 - 0,0
22.08.2019 23:00:00 14,3 12,0 7 4 16 8 Z 1018,2 - 0,0
22.08.2019 22:00:00 14,2 11,9 8 4 23 12 Z 1018,1 - 0,0
22.08.2019 21:00:00 14,3 12,2 8 5 21 11 Z 1017,9 - 0,0
22.08.2019 20:00:00 14,4 12,1 11 6 29 16 Z 1018,0 - 0,0
22.08.2019 19:00:00 14,2 12,2 12 7 34 18 Z 1018,3 42 1,4
22.08.2019 18:00:00 14,4 12,4 14 7 22 12 Z 1018,5 27 0,7
22.08.2019 17:00:00 14,3 12,9 10 5 19 11 Z 1019,6 9 1,0
22.08.2019 16:00:00 15,1 13,3 5 3 22 12 Z 1020,0 11 0,9
22.08.2019 15:00:00 16,7 11,6 7 4 25 13 Z 1019,9 27 0,0
22.08.2019 14:00:00 18,5 11,1 9 5 28 15 ZZW 1020,2 40 0,0
22.08.2019 13:00:00 17,5 12,4 13 7 26 14 ZZW 1020,7 39 0,0
22.08.2019 12:00:00 15,2 13,0 6 3 23 12 Z 1021,3 6 0,0
22.08.2019 11:00:00 16,6 12,6 8 4 22 12 Z 1021,6 33 0,0
22.08.2019 10:00:00 16,1 12,5 7 4 21 11 ZZW 1021,8 32 0,0
22.08.2019 09:00:00 15,4 12,7 6 3 13 7 Z 1022,1 35 0,0
22.08.2019 08:00:00 10,2 10,2 0 0 2 1 N 1022,2 28 0,0
22.08.2019 07:00:00 6,6 6,6 0 0 4 2 N 1022,4 17 0,0
22.08.2019 06:00:00 4,4 4,4 0 0 2 1 N 1022,4 - 0,0
22.08.2019 05:00:00 4,4 4,4 0 0 3 2 N 1022,6 - 0,0
22.08.2019 04:00:00 5,1 5,1 0 0 4 2 N 1022,6 - 0,0
22.08.2019 03:00:00 5,2 5,1 0 0 2 1 N 1022,4 - 0,0
22.08.2019 02:00:00 5,8 5,7 0 0 - - N 1022,2 - 0,0
22.08.2019 01:00:00 6,7 6,6 0 0 2 1 N 1022,1 - 0,0
22.08.2019 00:00:00 6,6 6,3 0 0 4 2 N 1022,0 - 0,0
21.08.2019 23:00:00 8,0 7,7 0 0 5 3 N 1021,8 - 0,0
21.08.2019 22:00:00 9,1 8,0 0 0 4 2 N 1021,5 - 0,0
21.08.2019 21:00:00 11,6 9,0 0 0 15 8 N 1021,0 - 0,0
21.08.2019 20:00:00 16,7 7,9 5 3 18 10 ZZW 1020,6 - 0,0
21.08.2019 19:00:00 17,9 8,5 5 3 19 10 ZW 1020,3 50 0,0
21.08.2019 18:00:00 19,4 7,5 6 3 20 11 WZW 1019,9 50 0,0
21.08.2019 17:00:00 20,4 8,7 7 4 21 11 WZW 1019,8 46 0,0
21.08.2019 16:00:00 20,3 7,6 8 5 18 10 ZW 1019,5 46 0,0
21.08.2019 15:00:00 19,1 10,1 5 3 19 11 WNW 1019,4 48 0,0
21.08.2019 14:00:00 20,3 10,1 6 3 13 7 ZW 1019,3 47 0,0
21.08.2019 13:00:00 18,3 11,8 5 3 15 8 NW 1019,5 40 0,0
21.08.2019 12:00:00 16,5 11,8 8 4 14 8 NNW 1019,2 46 0,0
21.08.2019 11:00:00 18,2 11,7 3 2 16 9 WZW 1018,9 46 0,0
21.08.2019 10:00:00 16,2 11,1 6 3 16 9 ZZW 1018,8 40 0,0
21.08.2019 09:00:00 14,3 11,6 3 1 8 4 OZO 1018,8 38 0,0
21.08.2019 08:00:00 12,0 12,0 0 0 7 4 N 1018,6 23 0,0
21.08.2019 07:00:00 9,2 9,2 3 2 8 5 ZZW 1018,4 21 0,0
21.08.2019 06:00:00 6,9 6,8 0 0 4 2 N 1018,2 - 0,0
21.08.2019 05:00:00 9,8 9,3 4 2 9 5 ZZO 1017,8 - 0,0
21.08.2019 04:00:00 10,3 9,8 0 0 8 4 N 1017,6 - 0,0
21.08.2019 03:00:00 13,1 11,3 4 2 12 7 Z 1017,3 - 0,0
21.08.2019 02:00:00 13,6 11,6 4 2 11 6 ZZO 1017,1 - 0,0
21.08.2019 01:00:00 13,1 11,5 5 3 9 5 ZZO 1016,9 - 0,0
21.08.2019 00:00:00 11,6 11,0 3 2 6 4 Z 1016,7 - 0,0
20.08.2019 23:00:00 11,9 10,3 4 2 13 7 ZZO 1016,5 - 0,0
20.08.2019 22:00:00 14,6 10,6 5 3 22 12 ZZW 1016,3 - 0,0
20.08.2019 21:00:00 15,6 10,6 6 3 21 11 Z 1016,1 - 0,0
20.08.2019 20:00:00 16,6 10,4 9 5 19 11 ZZW 1015,7 - 0,0
20.08.2019 19:00:00 17,4 10,5 7 4 21 11 ZZW 1015,2 48 0,0
20.08.2019 18:00:00 17,9 10,8 7 4 29 15 ZZW 1014,8 46 0,0
20.08.2019 17:00:00 19,1 9,6 10 6 29 16 ZW 1014,2 39 0,0
20.08.2019 16:00:00 19,2 10,2 12 6 31 17 ZZW 1014,1 39 0,0
20.08.2019 15:00:00 19,0 12,3 7 4 31 17 ZZW 1014,1 43 0,0
20.08.2019 14:00:00 18,4 11,0 14 8 26 14 Z 1014,0 35 0,0
20.08.2019 13:00:00 17,4 11,0 8 5 30 16 ZZW 1013,8 29 0,0
20.08.2019 12:00:00 18,4 10,2 11 6 36 19 ZZW 1013,2 32 0,0
20.08.2019 11:00:00 18,0 10,9 9 5 29 16 ZW 1012,8 38 0,0
20.08.2019 10:00:00 16,9 11,8 7 4 19 11 ZZW 1012,4 29 0,0
20.08.2019 09:00:00 15,9 12,3 10 5 - - ZZW 1012,0 28 0,0
20.08.2019 08:00:00 15,2 12,5 9 5 21 12 ZZW 1011,4 30 0,0
20.08.2019 07:00:00 14,2 12,8 6 3 11 6 Z 1011,2 30 0,0
20.08.2019 06:00:00 13,7 12,6 6 3 12 7 Z 1010,8 26 0,0
20.08.2019 05:00:00 10,9 10,7 0 0 6 3 N 1010,4 - 0,0
20.08.2019 04:00:00 10,6 10,3 0 0 7 4 N 1010,1 - 0,0
20.08.2019 03:00:00 14,0 12,0 7 4 12 7 Z 1009,5 - 0,0
20.08.2019 02:00:00 14,1 12,0 6 4 16 9 Z 1009,3 - 0,0
20.08.2019 01:00:00 14,3 12,2 8 4 14 7 Z 1009,1 - 0,0
20.08.2019 00:00:00 14,4 11,9 6 4 16 9 Z 1008,9 - 0,0
19.08.2019 23:00:00 14,7 11,7 6 4 19 11 Z 1008,5 - 0,0
19.08.2019 22:00:00 15,3 11,3 8 4 18 10 Z 1008,2 - 0,0
19.08.2019 21:00:00 15,7 10,9 6 3 23 12 Z 1007,8 - 0,0
19.08.2019 20:00:00 16,6 10,4 9 5 32 18 ZZW 1007,2 - 0,0
19.08.2019 19:00:00 17,9 11,0 11 6 27 15 ZZW 1006,5 37 0,0
19.08.2019 18:00:00 18,6 10,2 13 7 37 20 ZZW 1006,0 33 0,0
19.08.2019 17:00:00 18,5 11,1 11 6 28 15 ZZW 1005,7 35 0,0
19.08.2019 16:00:00 19,1 11,9 11 6 28 15 ZZW 1005,3 31 0,0
19.08.2019 15:00:00 18,9 12,4 9 5 29 16 ZZW 1004,9 39 0,0
19.08.2019 14:00:00 16,8 14,3 7 4 14 8 ZZW 1004,7 28 1,9
19.08.2019 13:00:00 14,5 14,0 3 2 31 17 W 1004,3 1,8 -
19.08.2019 12:00:00 17,7 12,2 14 7 30 16 ZZW 1003,6 31 0,0
19.08.2019 11:00:00 17,6 12,5 12 6 25 14 Z 1003,4 31 0,0
19.08.2019 10:00:00 16,5 12,7 10 6 21 11 ZZW 1003,5 24 0,0
19.08.2019 09:00:00 15,0 12,9 6 3 12 7 ZZW 1003,4 30 0,0
19.08.2019 08:00:00 14,1 12,8 6 3 8 5 OZO 1003,0 33 0,0
19.08.2019 07:00:00 12,7 12,2 3 2 10 5 Z 1002,7 32 0,0
19.08.2019 06:00:00 11,9 11,7 3 2 7 4 Z 1002,2 21 0,0
19.08.2019 05:00:00 11,6 11,4 3 2 5 3 Z 1001,8 20 0,0
19.08.2019 04:00:00 11,5 11,3 0 0 3 1 N 1001,2 7 0,0
19.08.2019 03:00:00 11,8 11,6 0 0 4 2 N 1001,4 7 -
19.08.2019 02:00:00 12,3 12,0 4 2 6 3 N 1000,8 5 -
19.08.2019 01:00:00 12,3 11,8 2 1 12 7 W 1001,0 5 2,8
19.08.2019 00:00:00 13,3 13,1 0 0 10 5 N 1000,7 2,1 2,6
18.08.2019 23:00:00 14,0 13,4 6 3 12 6 ZO 1000,9 7 1,1
18.08.2019 22:00:00 14,0 13,7 0 0 2 1 N 1001,1 6 0,5
18.08.2019 21:00:00 14,8 13,7 0 0 3 1 N 1001,3 21 0,0
18.08.2019 20:00:00 16,2 14,2 0 0 4 2 N 1001,6 38 0,0
18.08.2019 19:00:00 16,8 13,1 0 0 7 4 N 1002,0 35 0,0
18.08.2019 18:00:00 17,4 12,3 2 1 19 10 ZW 1002,3 34 0,0
18.08.2019 17:00:00 18,0 10,9 8 5 18 10 Z 1002,3 34 0,0
18.08.2019 16:00:00 19,0 9,8 9 5 22 12 Z 1002,6 34 0,0
18.08.2019 15:00:00 19,5 10,8 13 7 29 15 Z 1002,8 41 0,0
18.08.2019 14:00:00 18,7 10,0 13 7 22 12 ZZO 1003,0 40 0,0
18.08.2019 13:00:00 19,4 8,4 6 3 17 9 Z 1003,0 47 0,0
18.08.2019 12:00:00 19,6 9,8 6 3 16 9 Z 1003,2 30 0,0
18.08.2019 11:00:00 18,4 10,5 8 5 18 10 Z 1003,2 28 0,0
18.08.2019 10:00:00 17,0 11,3 10 5 18 10 Z 1003,1 29 0,0
18.08.2019 09:00:00 16,1 12,3 7 4 16 9 ZZW 1002,9 20 0,0
18.08.2019 08:00:00 15,0 12,9 8 4 14 7 ZZO 1003,0 19 0,0
18.08.2019 07:00:00 11,1 10,9 3 1 - - ZZO 1003,1 4,9 0,0
18.08.2019 06:00:00 12,3 12,1 3 2 6 3 Z 1002,8 4,1 0,0
18.08.2019 05:00:00 13,4 12,8 4 2 - - Z 1002,6 12 0,0
18.08.2019 04:00:00 13,3 12,7 3 2 7 4 ZZO 1002,6 12 0,0
18.08.2019 03:00:00 13,7 13,1 5 3 13 7 Z 1002,5 11 0,0
18.08.2019 02:00:00 14,4 13,4 5 3 14 7 Z 1002,4 16 0,0
18.08.2019 01:00:00 15,1 14,0 7 4 12 7 Z 1002,1 25 0,0
18.08.2019 00:00:00 14,8 14,0 3 2 - - Z 1001,7 29 0,0

tt = temperatuur
td = dauwpunt
ff = windsnelheid
fx = windstoten
dd = windrichting
ppp = luchtdruk
vv = zicht
rr = neerslag

Weerstations in de omgeving